GW6504 Weather Reports


time (UTC)temp
C
wind
direction
speed
KPH
gust
KPH
rain 1hr
cm
rain 24hr
cm
rain mn
cm
humidity
%
barometer
mb
20260506114503 12 320 3.2 8.0 0.00 0.00 0.00 27 1015.4
20260506114003 12 3 4.8 6.4 0.00 0.00 0.00 26 1015.5
20260506113503 12 349 6.4 8.0 0.00 0.00 0.00 25 1015.5
20260506113003 12 309 6.4 8.0 0.00 0.00 0.00 28 1015.5
20260506112503 12 310 4.8 8.0 0.00 0.00 0.00 28 1015.5
20260506112004 12 311 4.8 11.3 0.00 0.00 0.00 28 1015.5
20260506111503 12 319 6.4 11.3 0.00 0.00 0.00 28 1015.4
20260506111003 11 348 8.0 12.9 0.00 0.00 0.00 29 1015.5
20260506110716 11 14 8.0 12.9 0.00 0.00 0.00 29 1015.4
20260506110004 11 360 6.4 12.9 0.00 0.00 0.00 29 1015.5
20260506105503 13 6 4.8 11.3 0.00 0.00 0.00 27 1015.5
20260506105003 13 348 4.8 6.4 0.00 0.00 0.00 26 1015.5
20260506104504 13 308 4.8 6.4 0.00 0.00 0.00 26 1015.4
20260506104216 13 348 4.8 6.4 0.00 0.00 0.00 27 1015.5
20260506103503 13 48 3.2 6.4 0.00 0.00 0.00 25 1015.4
20260506103003 13 292 3.2 6.4 0.00 0.00 0.00 28 1015.5
20260506102503 12 318 3.2 8.0 0.00 0.00 0.00 28 1015.3
20260506102003 11 343 3.2 8.0 0.00 0.00 0.00 27 1015.4
20260506101503 12 11 4.8 8.0 0.00 0.00 0.00 24 1015.4
20260506101214 13 352 4.8 9.7 0.00 0.00 0.00 25 1015.5
20260506100503 13 328 6.4 9.7 0.00 0.00 0.00 24 1015.4
20260506100214 13 304 4.8 9.7 0.00 0.00 0.00 24 1015.4
20260506095503 13 320 4.8 6.4 0.00 0.00 0.00 25 1015.3
20260506095003 13 313 3.2 6.4 0.00 0.00 0.00 26 1015.3
20260506094503 13 285 4.8 6.4 0.00 0.00 0.00 25 1015.3
20260506094216 13 313 6.4 11.3 0.00 0.00 0.00 26 1015.1
20260506093503 13 350 4.8 11.3 0.00 0.00 0.00 25 1015.1
20260506093004 13 281 3.2 9.7 0.00 0.00 0.00 26 1015.2
20260506092715 13 290 3.2 6.4 0.00 0.00 0.00 27 1014.9
20260506092003 13 337 6.4 11.3 0.00 0.00 0.00 27 1015.1
20260506091503 12 354 4.8 9.7 0.00 0.00 0.00 28 1015.1
20260506091003 12 346 4.8 6.4 0.00 0.00 0.00 29 1015.0
20260506090503 11 340 3.2 6.4 0.00 0.00 0.00 30 1014.8
20260506090004 10 339 4.8 12.9 0.00 0.00 0.00 31 1014.8
20260506085503 12 330 4.8 12.9 0.00 0.00 0.00 29 1014.9
20260506085003 11 5 4.8 11.3 0.00 0.00 0.00 32 1014.9
20260506084503 10 16 3.2 6.4 0.00 0.00 0.00 30 1014.8
20260506084003 12 332 3.2 6.4 0.00 0.00 0.00 29 1014.9
20260506083503 12 323 3.2 6.4 0.00 0.00 0.00 28 1014.9
20260506083213 12 321 3.2 6.4 0.00 0.00 0.00 28 1015.0
20260506082503 11 326 3.2 6.4 0.00 0.00 0.00 33 1014.9
20260506082003 10 317 3.2 6.4 0.00 0.00 0.00 32 1014.9
20260506081503 11 329 4.8 6.4 0.00 0.00 0.00 29 1014.8
20260506081215 12 353 4.8 6.4 0.00 0.00 0.00 28 1014.8
20260506080713 13 77 3.2 6.4 0.00 0.00 0.00 28 1014.7
20260506073503 12 314 4.8 8.0 0.00 0.00 0.00 29 1014.6
20260506073003 11 356 3.2 4.8 0.00 0.00 0.00 31 1014.6
20260506072504 12 313 3.2 3.2 0.00 0.00 0.00 29 1014.5
20260506072003 12 275 1.6 3.2 0.00 0.00 0.00 32 1014.3
20260506071503 13 43 3.2 11.3 0.00 0.00 0.00 33 1014.4
20260506071216 13 57 3.2 11.3 0.00 0.00 0.00 33 1014.3
20260506070503 13 327 1.6 6.4 0.00 0.00 0.00 32 1014.3
20260506070216 13 325 1.6 6.4 0.00 0.00 0.00 32 1014.2
20260506062503 13 180 0.0 3.2 0.00 0.00 0.00 40 1014.0
20260506062004 13 292 0.0 1.6 0.00 0.00 0.00 42 1014.1
20260506061503 12 322 0.0 3.2 0.00 0.00 0.00 41 1013.9
20260506061216 11 331 1.6 3.2 0.00 0.00 0.00 45 1014.0
20260506060503 11 349 1.6 3.2 0.00 0.00 0.00 47 1014.1
20260506060217 11 333 1.6 3.2 0.00 0.00 0.00 45 1013.9
20260506051004 5 235 0.0 6.4 0.00 0.00 0.00 85 1013.5
20260506050503 4 326 1.6 6.4 0.00 0.00 0.00 88 1013.4
20260506045004 3 360 0.0 1.6 0.00 0.00 0.00 91 1013.4
20260506044503 3 360 0.0 1.6 0.00 0.00 0.00 92 1013.4
20260506044003 3 0 0.0 0.0 0.00 0.00 0.00 93 1013.4
20260506043503 2 0 0.0 0.0 0.00 0.00 0.00 88 1013.1
20260506043003 1 0 0.0 0.0 0.00 0.00 0.00 89 1013.2
20260506042503 0 0 0.0 0.0 0.00 0.00 0.00 89 1013.0
20260506042003 0 0 0.0 0.0 0.00 0.00 0.00 89 1013.0
20260506041714 0 0 0.0 0.0 0.00 0.00 0.00 89 1013.0
20260506041003 -1 0 0.0 0.0 0.00 0.00 0.00 89 1012.9
20260506040503 -1 0 0.0 0.0 0.00 0.00 0.00 89 1012.9
20260506040004 -1 0 0.0 0.0 0.00 0.00 0.00 89 1012.7
20260506035503 -1 0 0.0 0.0 0.00 0.00 0.00 89 1012.7
20260506035003 -1 0 0.0 0.0 0.00 0.00 0.00 89 1012.7
20260506034503 -2 0 0.0 0.0 0.00 0.00 0.00 88 1012.7
20260506034215 -2 0 0.0 0.0 0.00 0.00 0.00 84 1012.8
20260506033503 -2 0 0.0 0.0 0.00 0.00 0.00 84 1012.6
20260506033216 -2 0 0.0 0.0 0.00 0.00 0.00 84 1012.6
20260506032714 -2 0 0.0 0.0 0.00 0.00 0.00 84 1012.5
20260506032003 -2 0 0.0 0.0 0.00 0.00 0.00 83 1012.5
20260506031503 -2 0 0.0 0.0 0.00 0.00 0.00 83 1012.3
20260506031003 -3 0 0.0 0.0 0.00 0.00 0.00 84 1012.3
20260506030503 -3 0 0.0 0.0 0.00 0.00 0.00 84 1012.4
20260506030214 -3 0 0.0 0.0 0.00 0.00 0.00 84 1012.3
20260506025503 -3 0 0.0 0.0 0.00 0.00 0.00 84 1012.2
20260506025003 -3 0 0.0 0.0 0.00 0.00 0.00 84 1012.2
20260506024504 -3 0 0.0 0.0 0.00 0.00 0.00 84 1012.1
20260506024003 -3 0 0.0 0.0 0.00 0.00 0.00 83 1012.1
20260506023503 -3 0 0.0 0.0 0.00 0.00 0.00 83 1012.2
20260506023003 -3 0 0.0 0.0 0.00 0.00 0.00 83 1012.0
20260506022503 -3 0 0.0 0.0 0.00 0.00 0.00 83 1012.1
20260506022004 -3 0 0.0 0.0 0.00 0.00 0.00 83 1012.0
20260506021503 -3 0 0.0 0.0 0.00 0.00 0.00 83 1011.9
20260506021003 -3 0 0.0 0.0 0.00 0.00 0.00 83 1011.9
20260506020503 -3 0 0.0 0.0 0.00 0.00 0.00 83 1012.0
20260506020004 -3 0 0.0 0.0 0.00 0.00 0.00 83 1012.0
20260506015503 -3 0 0.0 0.0 0.00 0.00 0.00 83 1012.0
20260506015003 -3 0 0.0 0.0 0.00 0.00 0.00 83 1012.1
20260506014503 -3 0 0.0 0.0 0.00 0.00 0.00 83 1011.9
20260506014003 -3 0 0.0 0.0 0.00 0.00 0.00 83 1011.9
20260506013714 -3 0 0.0 0.0 0.00 0.00 0.00 83 1011.9
20260506013003 -3 0 0.0 0.0 0.00 0.00 0.00 83 1011.7
20260506012503 -3 0 0.0 0.0 0.00 0.00 0.00 83 1011.6
20260506012003 -3 0 0.0 0.0 0.00 0.00 0.00 83 1011.4
20260506011503 -3 0 0.0 0.0 0.00 0.00 0.00 82 1011.5
20260506011003 -3 0 0.0 0.0 0.00 0.00 0.00 82 1011.3
20260506010503 -3 0 0.0 0.0 0.00 0.00 0.00 82 1011.3
20260506010004 -3 0 0.0 0.0 0.00 0.00 0.00 82 1011.3
20260506005503 -3 0 0.0 0.0 0.00 0.00 0.00 82 1011.4
20260506005003 -3 0 0.0 0.0 0.00 0.00 0.00 82 1011.4
20260506004504 -3 0 0.0 0.0 0.00 0.00 0.00 82 1011.3
20260506004003 -3 0 0.0 0.0 0.00 0.00 0.00 82 1011.1
20260506003503 -3 0 0.0 0.0 0.00 0.00 0.00 82 1011.3
20260506003003 -3 0 0.0 0.0 0.00 0.00 0.00 82 1011.1
20260506002503 -3 0 0.0 0.0 0.00 0.00 0.00 81 1011.0
20260506002214 -3 0 0.0 0.0 0.00 0.00 0.00 81 1011.1
20260506001503 -3 0 0.0 0.0 0.00 0.00 0.00 81 1011.0
20260506001003 -3 0 0.0 0.0 0.00 0.00 0.00 81 1010.9
20260506000503 -3 0 0.0 0.0 0.00 0.00 0.00 81 1010.9
20260506000004 -3 0 0.0 0.0 0.00 0.00 0.00 81 1010.8
20260505235503 -3 0 0.0 0.0 0.00 0.00 0.00 81 1010.8
20260505235003 -3 0 0.0 0.0 0.00 0.00 0.00 81 1010.9
20260505234503 -3 0 0.0 0.0 0.00 0.00 0.00 81 1011.0
20260505234003 -3 0 0.0 0.0 0.00 0.00 0.00 81 1011.0
20260505233503 -3 0 0.0 0.0 0.00 0.00 0.00 80 1010.9
20260505233003 -3 0 0.0 0.0 0.00 0.00 0.00 80 1010.8
20260505232503 -3 0 0.0 0.0 0.00 0.00 0.00 80 1010.8
20260505232004 -3 0 0.0 0.0 0.00 0.00 0.00 80 1010.8
20260505231504 -2 0 0.0 0.0 0.00 0.00 0.00 79 1010.9
20260505231003 -2 0 0.0 0.0 0.00 0.00 0.00 79 1010.8
20260505230713 -2 0 0.0 0.0 0.00 0.00 0.00 78 1010.8
20260505230216 -2 0 0.0 0.0 0.00 0.00 0.00 78 1010.8
20260505225504 -2 0 0.0 0.0 0.00 0.00 0.00 78 1010.8
20260505225003 -2 0 0.0 0.0 0.00 0.00 0.00 78 1010.8
20260505224503 -2 0 0.0 0.0 0.00 0.00 0.00 78 1010.7
20260505224003 -2 0 0.0 0.0 0.00 0.00 0.00 78 1010.7
20260505223716 -2 0 0.0 0.0 0.00 0.00 0.00 78 1010.7
20260505223003 -2 0 0.0 0.0 0.00 0.00 0.00 78 1010.7
20260505222503 -2 0 0.0 0.0 0.00 0.00 0.00 82 1010.8
20260505222215 -1 0 0.0 0.0 0.00 0.00 0.00 82 1010.6
20260505221713 -1 0 0.0 0.0 0.00 0.00 0.00 81 1010.6
20260505221003 -1 0 0.0 0.0 0.00 0.00 0.00 81 1010.6
20260505220503 -1 0 0.0 0.0 0.00 0.00 0.00 80 1010.7
20260505220217 -1 0 0.0 0.0 0.00 0.00 0.00 80 1010.6
20260505215503 -1 0 0.0 0.0 0.00 0.00 0.00 80 1010.6
20260505215003 -1 0 0.0 0.0 0.00 0.00 0.00 79 1010.6
20260505214503 -1 0 0.0 0.0 0.00 0.00 0.00 79 1010.6
20260505214003 -1 0 0.0 0.0 0.00 0.00 0.00 79 1010.6
20260505213503 0 0 0.0 0.0 0.00 0.00 0.00 78 1010.5
20260505213215 0 0 0.0 0.0 0.00 0.00 0.00 78 1010.5
20260505212503 0 0 0.0 0.0 0.00 0.00 0.00 78 1010.4
20260505212216 0 0 0.0 0.0 0.00 0.00 0.00 77 1010.5
20260505211503 0 0 0.0 0.0 0.00 0.00 0.00 77 1010.6
20260505211217 0 0 0.0 0.0 0.00 0.00 0.00 77 1010.5
20260505210503 0 0 0.0 0.0 0.00 0.00 0.00 77 1010.5
20260505210228 0 0 0.0 0.0 0.00 0.00 0.00 76 1010.5
20260505205503 0 0 0.0 0.0 0.00 0.00 0.00 75 1010.3
20260505205003 0 0 0.0 0.0 0.00 0.00 0.00 75 1010.4
20260505204503 0 0 0.0 0.0 0.00 0.00 0.00 75 1010.3
20260505204214 0 0 0.0 0.0 0.00 0.00 0.00 74 1010.3
20260505203503 0 0 0.0 0.0 0.00 0.00 0.00 74 1010.2
20260505203003 0 0 0.0 0.0 0.00 0.00 0.00 74 1010.3
20260505202503 0 0 0.0 0.0 0.00 0.00 0.00 74 1010.2
20260505202003 0 0 0.0 0.0 0.00 0.00 0.00 74 1010.3
20260505201714 0 0 0.0 0.0 0.00 0.00 0.00 74 1010.1
20260505201003 0 0 0.0 0.0 0.00 0.00 0.00 73 1010.1
20260505200503 0 0 0.0 0.0 0.00 0.00 0.00 73 1010.0
20260505200004 0 90 0.0 3.2 0.00 0.00 0.00 72 1010.1
20260505195716 0 90 0.0 3.2 0.00 0.00 0.00 72 1010.0
20260505195003 1 0 0.0 0.0 0.00 0.00 0.00 72 1010.0
20260505194503 1 0 0.0 0.0 0.00 0.00 0.00 70 1009.9
20260505194004 1 0 0.0 0.0 0.00 0.00 0.00 70 1009.9
20260505193504 1 0 0.0 0.0 0.00 0.00 0.00 69 1009.8
20260505193003 1 0 0.0 0.0 0.00 0.00 0.00 68 1009.8
20260505192503 1 0 0.0 0.0 0.00 0.00 0.00 68 1010.0
20260505192003 1 0 0.0 0.0 0.00 0.00 0.00 66 1009.9
20260505191503 2 0 0.0 0.0 0.00 0.00 0.00 64 1009.9
20260505191003 2 0 0.0 0.0 0.00 0.00 0.00 63 1009.8
20260505190504 2 0 0.0 0.0 0.00 0.00 0.00 62 1009.7
20260505190004 2 0 0.0 0.0 0.00 0.00 0.00 61 1009.7
20260505185504 3 315 0.0 3.2 0.00 0.00 0.00 64 1009.7
20260505185004 3 315 0.0 3.2 0.00 0.00 0.00 64 1009.6
20260505184503 3 303 0.0 3.2 0.00 0.00 0.00 63 1009.6
20260505184003 3 349 0.0 3.2 0.00 0.00 0.00 62 1009.6
20260505183504 3 360 0.0 3.2 0.00 0.00 0.00 61 1009.4
20260505183003 4 0 0.0 0.0 0.00 0.00 0.00 61 1009.5
20260505182503 4 360 0.0 1.6 0.00 0.00 0.00 61 1009.4
20260505182004 4 337 0.0 1.6 0.00 0.00 0.00 60 1009.4
20260505181503 4 283 0.0 3.2 0.00 0.00 0.00 59 1009.5
20260505181003 5 300 1.6 4.8 0.00 0.00 0.00 58 1009.3
20260505180503 5 300 1.6 4.8 0.00 0.00 0.00 56 1009.2
20260505180004 5 301 1.6 4.8 0.00 0.00 0.00 55 1009.2
20260505175503 5 295 3.2 4.8 0.00 0.00 0.00 54 1009.2
20260505175003 5 294 1.6 4.8 0.00 0.00 0.00 53 1009.1
20260505174504 5 318 1.6 3.2 0.00 0.00 0.00 53 1009.0
20260505174003 5 299 3.2 4.8 0.00 0.00 0.00 52 1009.0
20260505173714 6 299 3.2 4.8 0.00 0.00 0.00 52 1009.0
20260505173003 6 281 4.8 6.4 0.00 0.00 0.00 50 1009.0
20260505172503 6 307 4.8 6.4 0.00 0.00 0.00 50 1008.9
20260505172213 6 319 3.2 4.8 0.00 0.00 0.00 50 1008.8
20260505171503 6 294 3.2 6.4 0.00 0.00 0.00 49 1008.8
20260505171003 6 271 4.8 6.4 0.00 0.00 0.00 50 1008.9
20260505170503 6 296 4.8 6.4 0.00 0.00 0.00 49 1008.9
20260505170004 6 315 4.8 6.4 0.00 0.00 0.00 49 1008.8
20260505165503 6 314 3.2 6.4 0.00 0.00 0.00 50 1008.9
20260505165004 6 314 4.8 6.4 0.00 0.00 0.00 50 1008.9
20260505164504 6 321 4.8 6.4 0.00 0.00 0.00 50 1008.8
20260505164217 7 314 4.8 6.4 0.00 0.00 0.00 48 1008.9
20260505163715 7 307 4.8 6.4 0.00 0.00 0.00 48 1008.8
20260505163004 7 322 3.2 6.4 0.00 0.00 0.00 48 1008.6
20260505162503 7 302 4.8 6.4 0.00 0.00 0.00 48 1008.7
20260505162003 7 294 4.8 6.4 0.00 0.00 0.00 48 1008.7
20260505161717 7 308 4.8 8.0 0.00 0.00 0.00 48 1008.6
20260505161003 7 321 4.8 8.0 0.00 0.00 0.00 48 1008.6
20260505160503 7 329 4.8 6.4 0.00 0.00 0.00 48 1008.7
20260505160216 7 334 3.2 6.4 0.00 0.00 0.00 48 1008.6
20260505153003 8 286 4.8 6.4 0.00 0.00 0.00 43 1008.4
20260505152504 8 297 4.8 12.9 0.00 0.00 0.00 43 1008.3
20260505152003 8 315 6.4 12.9 0.00 0.00 0.00 39 1008.5
20260505151505 8 319 6.4 8.0 0.00 0.00 0.00 40 1008.5
20260505151003 8 312 4.8 8.0 0.00 0.00 0.00 39 1008.3
20260505150504 8 314 4.8 8.0 0.00 0.00 0.00 41 1008.5
20260505140503 10 298 4.8 12.9 0.00 0.00 0.00 42 1008.1
20260505125003 11 339 6.4 9.7 0.00 0.00 0.00 37 1007.8
20260505124503 11 311 6.4 14.5 0.00 0.00 0.00 36 1007.7
20260505124003 11 289 8.0 14.5 0.00 0.00 0.00 37 1007.8
20260505123712 10 279 8.0 14.5 0.00 0.00 0.00 37 1007.7
20260505123003 10 303 8.0 12.9 0.00 0.00 0.00 39 1007.6
20260505122713 10 314 8.0 12.9 0.00 0.00 0.00 41 1007.7
20260505122217 10 344 8.0 14.5 0.00 0.00 0.00 40 1007.6
20260505121714 10 351 8.0 14.5 0.00 0.00 0.00 40 1007.7
20260505121003 10 312 8.0 8.0 0.00 0.00 0.00 40 1007.7
20260505120503 10 304 8.0 16.1 0.00 0.00 0.00 43 1007.5
20260505120005 10 306 8.0 16.1 0.00 0.00 0.00 42 1007.4
20260505115716 10 305 8.0 16.1 0.00 0.00 0.00 41 1007.4
20260505115003 11 301 6.4 8.0 0.00 0.00 0.00 41 1007.3